SFR813 FYWH-FACT

Flight info

Callsign SFR813
Flight time N/A
Altitude 34000
Route UVORI1A UVORI UN185 OKLOK UQ23 CSV UZ26 ERDAS ERDAS1C
Aircraft B738/M-SDE2E3FGHIRWXY/LB1

Departure

Time 2026-04-18 10:04
Airport Hosea Kutako International Airport (FYWH)

Arrival

Time N/A
Airport Cape Town International Airport (FACT)
Time Latitude Longitude Altitude Speed Heading
2026-04-18 09:41 -22.48569 17.46304 5600 ft 0 kts 317°
2026-04-18 10:00 -22.48519 17.46271 5608 ft 9 kts 318°
2026-04-18 10:00 -22.48517 17.46210 5605 ft 9 kts 245°
2026-04-18 10:00 -22.48547 17.46144 5605 ft 10 kts 243°
2026-04-18 10:00 -22.48581 17.46069 5609 ft 12 kts 243°
2026-04-18 10:01 -22.48621 17.45984 5612 ft 13 kts 243°
2026-04-18 10:01 -22.48665 17.45890 5614 ft 14 kts 243°
2026-04-18 10:01 -22.48708 17.45793 5613 ft 15 kts 244°
2026-04-18 10:01 -22.48755 17.45690 5617 ft 16 kts 244°
2026-04-18 10:02 -22.48796 17.45595 5621 ft 9 kts 261°
2026-04-18 10:02 -22.48758 17.45537 5620 ft 12 kts 336°
2026-04-18 10:02 -22.48709 17.45543 5620 ft 9 kts 53°
2026-04-18 10:02 -22.48693 17.45572 5617 ft 0 kts 62°
2026-04-18 10:03 -22.48690 17.45579 5616 ft 5 kts 62°
2026-04-18 10:03 -22.48603 17.45767 5616 ft 60 kts 63°
2026-04-18 10:03 -22.48317 17.46384 5593 ft 121 kts 63°
2026-04-18 10:04 -22.47860 17.47372 5576 ft 171 kts 63°
2026-04-18 10:04 -22.47277 17.48633 5827 ft 195 kts 63°
2026-04-18 10:04 -22.46674 17.49933 6684 ft 190 kts 60°
2026-04-18 10:04 -22.46073 17.51203 7379 ft 194 kts 59°
2026-04-18 10:05 -22.45420 17.52574 7630 ft 214 kts 58°
2026-04-18 10:05 -22.44752 17.54055 7921 ft 228 kts 66°
2026-04-18 10:05 -22.44648 17.55844 8002 ft 262 kts 101°
2026-04-18 10:05 -22.45581 17.57649 8156 ft 292 kts 133°
2026-04-18 10:06 -22.47353 17.58879 8353 ft 316 kts 161°
2026-04-18 10:06 -22.49480 17.59485 9122 ft 315 kts 170°
2026-04-18 10:06 -22.51621 17.59958 9762 ft 316 kts 172°
2026-04-18 10:06 -22.53821 17.60440 10175 ft 331 kts 171°
2026-04-18 10:07 -22.56135 17.60979 10488 ft 349 kts 169°
2026-04-18 10:07 -22.58555 17.61580 10879 ft 362 kts 169°
2026-04-18 10:07 -22.61024 17.62211 11560 ft 364 kts 169°
2026-04-18 10:07 -22.63489 17.62847 12292 ft 365 kts 169°
2026-04-18 10:08 -22.65967 17.63486 12991 ft 367 kts 169°
2026-04-18 10:08 -22.68459 17.64124 13674 ft 369 kts 170°
2026-04-18 10:08 -22.71016 17.64355 14025 ft 375 kts 185°
2026-04-18 10:08 -22.73667 17.64146 14237 ft 388 kts 188°
2026-04-18 10:09 -22.76376 17.63863 14665 ft 393 kts 189°
2026-04-18 10:09 -22.79107 17.63575 15215 ft 395 kts 188°
2026-04-18 10:09 -22.81844 17.63303 15805 ft 396 kts 188°
2026-04-18 10:09 -22.84598 17.63047 16321 ft 399 kts 187°
2026-04-18 10:10 -22.87379 17.62802 16837 ft 401 kts 187°
2026-04-18 10:10 -22.90136 17.62568 17364 ft 404 kts 187°
2026-04-18 10:10 -22.92985 17.62329 17892 ft 406 kts 187°
2026-04-18 10:10 -22.95775 17.62098 18360 ft 409 kts 187°
2026-04-18 10:11 -22.98623 17.61862 18812 ft 411 kts 187°
2026-04-18 10:11 -23.01479 17.61625 19261 ft 413 kts 187°
2026-04-18 10:11 -23.04349 17.61387 19692 ft 415 kts 188°
2026-04-18 10:11 -23.07239 17.61147 20132 ft 417 kts 188°
2026-04-18 10:12 -23.10142 17.60905 20555 ft 420 kts 188°
2026-04-18 10:12 -23.13062 17.60662 20997 ft 421 kts 188°
2026-04-18 10:12 -23.15991 17.60418 21427 ft 423 kts 188°
2026-04-18 10:12 -23.18938 17.60172 21846 ft 425 kts 188°
2026-04-18 10:13 -23.21893 17.59925 22255 ft 427 kts 188°
2026-04-18 10:13 -23.24869 17.59713 22674 ft 431 kts 185°
2026-04-18 10:13 -23.27889 17.59991 23039 ft 439 kts 175°
2026-04-18 10:13 -23.30911 17.60536 23441 ft 442 kts 174°
2026-04-18 10:14 -23.33960 17.61121 23760 ft 445 kts 175°
2026-04-18 10:14 -23.37022 17.61685 24071 ft 447 kts 175°
2026-04-18 10:14 -23.40065 17.62211 24353 ft 449 kts 176°
2026-04-18 10:14 -23.43199 17.62728 24651 ft 451 kts 176°
2026-04-18 10:15 -23.46279 17.63227 24957 ft 453 kts 176°
2026-04-18 10:15 -23.49404 17.63732 25263 ft 456 kts 176°
2026-04-18 10:15 -23.52549 17.64245 25558 ft 458 kts 176°
2026-04-18 10:15 -23.55711 17.64765 25846 ft 460 kts 176°
2026-04-18 10:16 -23.58890 17.65290 26119 ft 463 kts 177°
2026-04-18 10:16 -23.62081 17.65817 26415 ft 465 kts 177°
2026-04-18 10:16 -23.65289 17.66347 26697 ft 467 kts 177°
2026-04-18 10:16 -23.68507 17.66879 26987 ft 469 kts 177°
2026-04-18 10:17 -23.71751 17.67414 27235 ft 472 kts 177°
2026-04-18 10:17 -23.75006 17.67952 27504 ft 474 kts 177°
2026-04-18 10:17 -23.78275 17.68491 27779 ft 476 kts 177°
2026-04-18 10:17 -23.81562 17.69028 28038 ft 478 kts 177°
2026-04-18 10:18 -23.84811 17.69555 28289 ft 480 kts 178°
2026-04-18 10:18 -23.88123 17.70092 28540 ft 482 kts 178°
2026-04-18 10:18 -23.91441 17.70630 28788 ft 484 kts 178°
2026-04-18 10:18 -23.94782 17.71173 29026 ft 486 kts 178°
2026-04-18 10:19 -23.98132 17.71718 29289 ft 488 kts 178°
2026-04-18 10:19 -24.01484 17.72265 29527 ft 490 kts 178°
2026-04-18 10:19 -24.04854 17.72815 29826 ft 490 kts 178°
2026-04-18 10:19 -24.08221 17.73367 30168 ft 489 kts 178°
2026-04-18 10:20 -24.11582 17.73918 30514 ft 486 kts 178°
2026-04-18 10:20 -24.14920 17.74465 30872 ft 484 kts 178°
2026-04-18 10:20 -24.18245 17.75009 31192 ft 483 kts 178°
2026-04-18 10:20 -24.21568 17.75553 31486 ft 482 kts 178°
2026-04-18 10:21 -24.24882 17.76095 31800 ft 481 kts 179°
2026-04-18 10:21 -24.28196 17.76637 32116 ft 480 kts 179°
2026-04-18 10:21 -24.31489 17.77177 32431 ft 478 kts 179°
2026-04-18 10:21 -24.34783 17.77717 32734 ft 477 kts 179°
2026-04-18 10:22 -24.38061 17.78255 33041 ft 476 kts 179°
2026-04-18 10:22 -24.41334 17.78792 33341 ft 475 kts 179°
2026-04-18 10:22 -24.44559 17.79321 33629 ft 474 kts 179°
2026-04-18 10:22 -24.47860 17.79864 33918 ft 473 kts 179°
2026-04-18 10:23 -24.51084 17.80391 33944 ft 476 kts 180°
2026-04-18 10:23 -24.57641 17.81451 33977 ft 476 kts 179°
2026-04-18 10:24 -24.64168 17.82511 33964 ft 472 kts 179°
2026-04-18 10:24 -24.70650 17.83563 33961 ft 470 kts 179°
2026-04-18 10:25 -24.77102 17.84611 33966 ft 468 kts 179°
2026-04-18 10:25 -24.83546 17.85658 33966 ft 468 kts 179°
2026-04-18 10:26 -24.89992 17.86707 33972 ft 470 kts 179°
2026-04-18 10:26 -24.96478 17.87764 33969 ft 472 kts 179°
2026-04-18 10:27 -25.02962 17.88823 33969 ft 474 kts 179°
2026-04-18 10:27 -25.09505 17.89890 33969 ft 476 kts 179°
2026-04-18 10:28 -25.16071 17.90962 33993 ft 478 kts 178°
2026-04-18 10:28 -25.22671 17.92041 33971 ft 480 kts 178°
2026-04-18 10:29 -25.29241 17.93118 33960 ft 480 kts 178°
2026-04-18 10:29 -25.35854 17.94204 33963 ft 480 kts 178°
2026-04-18 10:30 -25.42460 17.95289 33965 ft 479 kts 178°
2026-04-18 10:30 -25.49051 17.96373 33974 ft 479 kts 178°
2026-04-18 10:31 -25.55647 17.97458 33969 ft 478 kts 178°
2026-04-18 10:31 -25.62218 17.98540 33963 ft 477 kts 178°
2026-04-18 10:32 -25.68792 17.99624 33967 ft 476 kts 178°
2026-04-18 10:32 -25.75348 18.00706 33982 ft 476 kts 178°
2026-04-18 10:33 -25.81911 18.01790 33968 ft 476 kts 178°
2026-04-18 10:33 -25.88462 18.02874 33964 ft 476 kts 178°
2026-04-18 10:34 -25.95005 18.03958 33968 ft 475 kts 178°
2026-04-18 10:34 -26.01532 18.05041 33977 ft 475 kts 178°
2026-04-18 10:35 -26.08073 18.06126 33977 ft 475 kts 177°
2026-04-18 10:35 -26.14614 18.07213 33972 ft 476 kts 177°
2026-04-18 10:36 -26.21164 18.08303 33969 ft 476 kts 177°
2026-04-18 10:36 -26.27718 18.09395 33971 ft 476 kts 177°
2026-04-18 10:37 -26.34263 18.10486 33978 ft 476 kts 177°
2026-04-18 10:37 -26.39713 18.11396 33976 ft 476 kts 177°
2026-04-18 10:38 -26.47366 18.12675 33968 ft 476 kts 177°
2026-04-18 10:38 -26.53906 18.13770 33970 ft 475 kts 177°
2026-04-18 10:39 -26.60445 18.14866 34001 ft 475 kts 178°
2026-04-18 10:39 -26.65882 18.15778 33980 ft 475 kts 178°
2026-04-18 10:40 -26.72420 18.16875 33970 ft 475 kts 178°
2026-04-18 10:40 -26.78959 18.17974 33975 ft 474 kts 178°
2026-04-18 10:41 -26.85483 18.19072 33976 ft 474 kts 178°
2026-04-18 10:41 -26.92007 18.20171 33986 ft 474 kts 178°
2026-04-18 10:42 -26.98537 18.21272 33981 ft 474 kts 178°
2026-04-18 10:42 -27.05043 18.22368 33989 ft 474 kts 178°
2026-04-18 10:43 -27.11571 18.23472 33975 ft 474 kts 178°
2026-04-18 10:43 -27.18051 18.24572 33974 ft 474 kts 178°
2026-04-18 10:44 -27.24568 18.25677 33988 ft 473 kts 178°
2026-04-18 10:44 -27.31079 18.26781 33984 ft 473 kts 178°
2026-04-18 10:45 -27.37598 18.27889 33989 ft 473 kts 178°
2026-04-18 10:45 -27.44113 18.28997 34015 ft 473 kts 178°
2026-04-18 10:46 -27.50632 18.30084 33979 ft 472 kts 180°
2026-04-18 10:46 -27.57142 18.30704 33977 ft 468 kts 184°
2026-04-18 10:47 -27.63652 18.31149 33978 ft 468 kts 183°
2026-04-18 10:47 -27.70149 18.31642 33970 ft 467 kts 183°
2026-04-18 10:48 -27.76629 18.32172 33979 ft 467 kts 183°
2026-04-18 10:48 -27.83126 18.32708 33971 ft 467 kts 183°
2026-04-18 10:49 -27.89611 18.33239 33969 ft 467 kts 183°
2026-04-18 10:49 -27.96093 18.33761 33967 ft 467 kts 183°
2026-04-18 10:50 -28.02550 18.34280 33978 ft 467 kts 184°
2026-04-18 10:50 -28.09033 18.34803 33968 ft 467 kts 184°
2026-04-18 10:51 -28.15519 18.35536 33967 ft 472 kts 178°
2026-04-18 10:51 -28.21983 18.36958 33976 ft 474 kts 175°
2026-04-18 10:52 -28.28455 18.38413 33996 ft 473 kts 177°
2026-04-18 10:52 -28.34929 18.39783 33974 ft 473 kts 177°
2026-04-18 10:53 -28.41361 18.41133 33968 ft 472 kts 177°
2026-04-18 10:53 -28.47826 18.42492 33977 ft 472 kts 177°
2026-04-18 10:54 -28.54282 18.43852 34004 ft 471 kts 177°
2026-04-18 10:54 -28.60738 18.45213 33985 ft 472 kts 177°
2026-04-18 10:55 -28.67194 18.46576 33982 ft 472 kts 177°
2026-04-18 10:55 -28.73644 18.47940 33985 ft 471 kts 177°
2026-04-18 10:56 -28.80096 18.49306 33991 ft 472 kts 177°
2026-04-18 10:56 -28.86560 18.50676 33999 ft 472 kts 178°
2026-04-18 10:57 -28.93021 18.52048 34005 ft 473 kts 178°
2026-04-18 10:57 -28.99502 18.53425 33992 ft 474 kts 178°
2026-04-18 10:58 -29.05965 18.54800 34000 ft 474 kts 178°
2026-04-18 10:58 -29.12443 18.56181 34005 ft 474 kts 178°
2026-04-18 10:59 -29.18931 18.57565 34007 ft 474 kts 178°
2026-04-18 10:59 -29.25415 18.58951 33997 ft 473 kts 178°
2026-04-18 11:00 -29.31880 18.60335 34000 ft 472 kts 178°
2026-04-18 11:00 -29.38338 18.61717 34015 ft 472 kts 178°
2026-04-18 11:01 -29.44796 18.63102 34008 ft 472 kts 178°
2026-04-18 11:01 -29.51246 18.64487 33999 ft 471 kts 178°
2026-04-18 11:02 -29.60896 18.66563 34001 ft 470 kts 178°
2026-04-18 11:02 -29.67340 18.67950 34007 ft 471 kts 178°
2026-04-18 11:03 -29.73742 18.69331 33994 ft 471 kts 178°
2026-04-18 11:03 -29.80188 18.70723 33997 ft 471 kts 178°
2026-04-18 11:04 -29.86635 18.72118 33996 ft 471 kts 178°
2026-04-18 11:04 -29.93079 18.73513 33998 ft 471 kts 178°
2026-04-18 11:05 -29.99529 18.74912 33993 ft 471 kts 178°
2026-04-18 11:05 -30.05936 18.76303 33990 ft 472 kts 178°
2026-04-18 11:06 -30.12393 18.77707 33991 ft 472 kts 178°
2026-04-18 11:06 -30.18853 18.79113 33992 ft 473 kts 179°
2026-04-18 11:07 -30.25284 18.80515 33994 ft 473 kts 179°
2026-04-18 11:07 -30.31751 18.81927 33987 ft 473 kts 179°
2026-04-18 11:08 -30.38226 18.83343 33991 ft 473 kts 179°
2026-04-18 11:08 -30.44706 18.84761 33991 ft 474 kts 179°
2026-04-18 11:09 -30.51187 18.86182 33993 ft 474 kts 179°
2026-04-18 11:09 -30.57671 18.87604 33982 ft 474 kts 179°
2026-04-18 11:10 -30.64145 18.89021 33983 ft 473 kts 179°
2026-04-18 11:10 -30.70636 18.90444 33988 ft 474 kts 179°
2026-04-18 11:11 -30.77124 18.91868 33983 ft 474 kts 179°
2026-04-18 11:11 -30.83565 18.93285 33975 ft 474 kts 179°
2026-04-18 11:12 -30.90044 18.94714 33980 ft 473 kts 179°
2026-04-18 11:12 -30.96517 18.96141 33985 ft 473 kts 179°
2026-04-18 11:13 -31.02980 18.97568 33984 ft 473 kts 179°
2026-04-18 11:13 -31.09449 18.98999 33982 ft 473 kts 179°
2026-04-18 11:14 -31.15823 19.00410 33986 ft 472 kts 179°
2026-04-18 11:14 -31.22296 19.01843 33990 ft 475 kts 180°
2026-04-18 11:15 -31.28790 19.03286 33991 ft 475 kts 180°
2026-04-18 11:15 -31.35286 19.04733 33986 ft 475 kts 180°
2026-04-18 11:16 -31.41779 19.06180 33986 ft 475 kts 180°
2026-04-18 11:16 -31.48242 19.07620 33994 ft 476 kts 180°
2026-04-18 11:17 -31.54755 19.09075 33981 ft 476 kts 180°
2026-04-18 11:17 -31.61267 19.10532 33988 ft 476 kts 180°
2026-04-18 11:18 -31.67776 19.11990 33974 ft 477 kts 180°
2026-04-18 11:18 -31.74295 19.13452 34000 ft 477 kts 180°
2026-04-18 11:19 -31.80823 19.14916 33926 ft 475 kts 182°
2026-04-18 11:19 -31.84004 19.15013 34062 ft 452 kts 191°
2026-04-18 11:19 -31.87219 19.15577 34015 ft 481 kts 174°
2026-04-18 11:20 -31.92624 19.17427 33991 ft 487 kts 176°
2026-04-18 11:20 -32.00309 19.19396 33992 ft 482 kts 180°
2026-04-18 11:21 -32.06908 19.20831 33994 ft 481 kts 180°
2026-04-18 11:21 -32.13496 19.22289 33983 ft 482 kts 180°
2026-04-18 11:22 -32.20084 19.23782 34020 ft 482 kts 180°
2026-04-18 11:22 -32.26639 19.25235 33979 ft 483 kts 180°
2026-04-18 11:23 -32.33235 19.26764 33983 ft 483 kts 180°
2026-04-18 11:23 -32.39820 19.28285 33980 ft 477 kts 180°
2026-04-18 11:24 -32.41996 19.28793 34022 ft 463 kts 180°
2026-04-18 11:24 -32.45083 19.29521 33983 ft 442 kts 181°
2026-04-18 11:24 -32.47775 19.30156 34046 ft 418 kts 181°
2026-04-18 11:24 -32.50606 19.30812 33276 ft 416 kts 182°
2026-04-18 11:25 -32.53474 19.31448 32582 ft 415 kts 182°
2026-04-18 11:25 -32.56302 19.32082 32315 ft 418 kts 182°
2026-04-18 11:25 -32.59175 19.32717 32065 ft 432 kts 181°
2026-04-18 11:25 -32.62221 19.33396 31810 ft 447 kts 180°
2026-04-18 11:26 -32.64273 19.33858 31581 ft 459 kts 180°
2026-04-18 11:26 -32.64375 19.33882 31570 ft 460 kts 180°
2026-04-18 11:26 -32.66321 19.34326 31323 ft 465 kts 180°
2026-04-18 11:26 -32.69458 19.35066 30922 ft 454 kts 180°
2026-04-18 11:27 -32.72524 19.35795 30608 ft 447 kts 180°
2026-04-18 11:27 -32.75591 19.36503 30068 ft 448 kts 180°
2026-04-18 11:27 -32.77991 19.37057 29699 ft 441 kts 180°
2026-04-18 11:27 -32.80949 19.37737 29232 ft 423 kts 182°
2026-04-18 11:28 -32.83795 19.38233 28804 ft 406 kts 185°
2026-04-18 11:28 -32.86596 19.38613 28286 ft 403 kts 186°